Weather History for Kirksville, MO

Change the Weather History Date:

Wednesday, March 13, 2013

  Actual Average Record
Temperature  
Mean Temperature 30 °F 40 °F  
Max Temperature 40 °F 50 °F 84 °F (1918)
Min Temperature 20 °F 30 °F 5 °F (1993)
Degree Days  
Heating Degree Days 35 25  
Month to date heating degree days 467 364  
Since 1 July heating degree days 4847 4897  
Cooling Degree Days 0 0  
Month to date cooling degree days 0 0  
Year to date cooling degree days 0 0  
Moisture  
Dew Point 16 °F    
Average Humidity 58    
Maximum Humidity 81    
Minimum Humidity 34    
Precipitation  
Precipitation 0.00 in 0.08 in 1.02 in (1925)
Month to date precipitation 2.63 1.07  
Year to date precipitation 8.08 3.87  
Sea Level Pressure  
Sea Level Pressure 30.40 in    
Wind  
Wind Speed 7 mph (NW)    
Max Wind Speed 20 mph    
Max Gust Speed 28 mph    
Visibility 10 miles    
Events      
T = Trace of Precipitation, MM = Missing Value Source: NWS Daily Summary

Daily Weather History Graph

Daily Weather History Graph

Search for Another Location

Airport:

Trip Planner

Search our weather history database for the weather conditions in past years. The results will help you decide how hot, cold, wet, or windy it might be!

Date:

Astronomy

Mar. 13, 2013 Rise Set
Actual Time 7:24 AM CDT 7:15 PM CDT
Civil Twilight 6:57 AM CDT 7:42 PM CDT
Nautical Twilight 6:26 AM CDT 8:13 PM CDT
Astronomical Twilight 5:54 AM CDT 8:45 PM CDT
Moon 8:04 AM CDT (3/13) 9:32 PM CDT (3/13)
Length of Visible Light 12h 44m
Length of Day
11h 50m
Waxing Crescent, 4% of the Moon is Illuminated
Mar 13
Waxing Crescent
Mar 19
First Quarter
Mar 27
Full
Apr 2
Last Quarter
Apr 10
New

Hourly Weather History & Observations

Time (CDT) Temp. Windchill Dew Point Humidity Pressure Visibility Wind Dir Wind Speed Gust Speed Precip Events Conditions
12:13 AM 26.6 °F 15.2 °F 19.4 °F 74% 30.24 in 10.0 mi NW 13.8 mph 23.0 mph N/A   Scattered Clouds
12:55 AM 27.0 °F 16.1 °F 17.1 °F 66% 30.29 in 10.0 mi WNW 12.7 mph - N/A   Scattered Clouds
1:55 AM 27.0 °F 16.1 °F 17.1 °F 66% 30.30 in 10.0 mi NW 12.7 mph 19.6 mph N/A   Overcast
2:55 AM 25.0 °F 13.6 °F 15.1 °F 66% 30.31 in 10.0 mi NW 12.7 mph 24.2 mph N/A   Scattered Clouds
3:55 AM 24.1 °F 11.5 °F 14.0 °F 65% 30.32 in 10.0 mi NW 15.0 mph 19.6 mph N/A   Partly Cloudy
4:55 AM 23.0 °F 13.9 °F 15.1 °F 72% 30.34 in 10.0 mi NW 8.1 mph - N/A   Scattered Clouds
5:55 AM 21.9 °F 11.0 °F 15.1 °F 75% 30.37 in 10.0 mi NW 10.4 mph - N/A   Clear
6:55 AM 21.0 °F 10.6 °F 14.0 °F 74% 30.39 in 10.0 mi NW 9.2 mph - N/A   Clear
7:55 AM 21.0 °F 11.4 °F 15.1 °F 78% 30.40 in 10.0 mi WNW 8.1 mph - N/A   Clear
8:55 AM 23.0 °F 13.1 °F 15.1 °F 72% 30.43 in 10.0 mi NW 9.2 mph - N/A   Clear
9:55 AM 26.1 °F 16.2 °F 15.1 °F 63% 30.45 in 10.0 mi NNW 10.4 mph - N/A   Clear
10:55 AM 28.9 °F 19.8 °F 14.0 °F 54% 30.48 in 10.0 mi NW 10.4 mph - N/A   Clear
11:55 AM 30.9 °F 22.8 °F 14.0 °F 50% 30.49 in 10.0 mi NNW 9.2 mph - N/A   Clear
12:55 PM 33.1 °F 25.5 °F 14.0 °F 46% 30.48 in 10.0 mi WNW 9.2 mph - N/A   Clear
1:55 PM 35.1 °F 29.3 °F 15.1 °F 44% 30.48 in 10.0 mi West 6.9 mph - N/A   Clear
3:55 PM 37.9 °F 33.5 °F 14.0 °F 38% 30.43 in 10.0 mi NNW 5.8 mph - N/A   Clear
4:55 PM 39.0 °F 35.7 °F 14.0 °F 36% 30.43 in 10.0 mi West 4.6 mph - N/A   Clear
5:55 PM 39.0 °F 34.0 °F 15.1 °F 38% 30.43 in 10.0 mi West 6.9 mph - N/A   Clear
6:55 PM 36.0 °F - 16.0 °F 44% 30.42 in 10.0 mi Calm Calm - N/A   Clear
7:55 PM 32.0 °F 27.5 °F 18.0 °F 56% 30.42 in 10.0 mi East 4.6 mph - N/A   Clear
8:55 PM 28.9 °F 25.2 °F 19.0 °F 67% 30.42 in 10.0 mi South 3.5 mph - N/A   Clear
9:55 PM 27.0 °F - 18.0 °F 69% 30.42 in 10.0 mi Calm Calm - N/A   Clear
10:55 PM 26.1 °F - 21.0 °F 81% 30.41 in 10.0 mi Calm Calm - N/A   Clear
11:55 PM 28.0 °F 21.7 °F 19.0 °F 69% 30.40 in 10.0 mi South 5.8 mph - N/A   Clear